Retour au catalogue

CZ-4C R/B

ActifLEO
NORAD 64754·ROCKET BODY·🇨🇳 China

Lancé Jul 3, 2025 depuis Xichang Satellite Launch Center

Loading…

Prochains Passages (prochaines 24 heures)

TLE

FraisSource: Space-Track

Époque: Sep 13, 2026, 15:17 UTC

1 64754U 25145B   26256.63718001  .00000722  00000-0  34267-4 0  9997
2 64754  10.9866 340.0100 0120971  31.7706 328.9763 14.56769798 63739

Suivez CZ-4C R/B en temps réel avec AllMySat

Download on the App Store